Mobile, AL

1:48 PM CDT on August 29, 2016 (GMT -0500)
Mobile Downtown

Weather History for KBFM - March, 2014

Change the Weather History Date:

Saturday, March 22, 2014

  Actual Average Record
Temperature  
Mean Temperature 65 °F -  
Max Temperature 75 °F 67 °F 82 °F (2015)
Min Temperature 55 °F 49 °F 35 °F (1998)
Growing Degree Days 15 (Base 50)    
Moisture  
Dew Point 57 °F    
Average Humidity 92    
Maximum Humidity 100    
Minimum Humidity 43    
Precipitation  
Precipitation 0.00 in - - ()
Sea Level Pressure  
Sea Level Pressure 30.05 in    
Wind  
Wind Speed 2 mph (SE)    
Max Wind Speed 13 mph    
Max Gust Speed 21 mph    
Visibility 4 miles    
Events Fog    
Averages and records for this station are not official NWS values.
T = Trace of Precipitation, MM = Missing Value Source: NWS Daily Summary

Daily Weather History Graph

Daily Weather History Graph

Search for Another Location

Airport or City:

Trip Planner

Search our weather history database for the weather conditions in past years. The results will help you decide how hot, cold, wet, or windy it might be!

Date:

Astronomy

Mar. 22, 2014 Rise Set
Actual Time 6:53 AM CDT 7:05 PM CDT
Civil Twilight 6:29 AM CDT 7:29 PM CDT
Nautical Twilight 6:01 AM CDT 7:57 PM CDT
Astronomical Twilight 5:33 AM CDT 8:25 PM CDT
Moon 12:05 AM CDT (3/22) 10:56 AM CDT (3/22)
Length of Visible Light 12h 59m
Length of Day
12h 11m
Waning Gibbous, 65% of the Moon is Illuminated
Mar 22
Waning Gibbous
Mar 23
Last Quarter
Mar 30
New
Apr 7
First Quarter
Apr 15
Full

Hourly Weather History & Observations

Time (CDT) Temp. Dew Point Humidity Pressure Visibility Wind Dir Wind Speed Gust Speed Precip Events Conditions
12:32 AM 55.0 °F 55.0 °F 100% 30.05 in 0.8 mi Calm Calm - N/A   Mist
12:35 AM 55.0 °F 55.0 °F 100% 30.05 in 1.2 mi Calm Calm - N/A   Partly Cloudy
12:39 AM 55.9 °F 55.0 °F 97% 30.05 in 3.0 mi NW 3.5 mph - N/A   Partly Cloudy
12:53 AM 55.9 °F 55.0 °F 97% 30.05 in 5.0 mi Calm Calm - N/A   Clear
1:32 AM 55.0 °F 54.0 °F 96% 30.05 in 2.0 mi Calm Calm - N/A   Partly Cloudy
1:40 AM 55.9 °F 55.0 °F 97% 30.05 in 1.5 mi Calm Calm - N/A   Clear
1:53 AM 55.9 °F 55.0 °F 97% 30.04 in 1.8 mi Calm Calm - N/A   Clear
2:02 AM 55.0 °F 54.0 °F 96% 30.04 in 2.5 mi Calm Calm - N/A   Clear
2:08 AM 55.0 °F 54.0 °F 96% 30.04 in 1.0 mi Calm Calm - N/A   Mist
2:16 AM 55.9 °F 54.0 °F 93% 30.04 in 2.0 mi Calm Calm - N/A   Clear
2:23 AM 55.9 °F 55.0 °F 97% 30.04 in 4.0 mi Calm Calm - N/A   Clear
2:30 AM 55.9 °F 55.0 °F 97% 30.03 in 1.8 mi Calm Calm - N/A   Clear
2:44 AM 55.9 °F 55.0 °F 97% 30.03 in 2.5 mi Calm Calm - N/A   Clear
2:53 AM 55.9 °F 55.0 °F 97% 30.03 in 1.5 mi Calm Calm - N/A   Clear
3:11 AM 55.0 °F 54.0 °F 96% 30.03 in 0.8 mi Calm Calm - N/A   Mist
3:40 AM 55.0 °F 54.0 °F 96% 30.03 in 0.2 mi Calm Calm - N/A Fog Fog
3:53 AM 55.9 °F 55.0 °F 97% 30.03 in 0.2 mi Calm Calm - N/A Fog Fog
4:01 AM 55.9 °F 55.0 °F 97% 30.03 in 5.0 mi Calm Calm - N/A   Overcast
4:12 AM 55.9 °F 55.0 °F 97% 30.04 in 5.0 mi Calm Calm - N/A   Overcast
4:38 AM 55.0 °F 54.0 °F 96% 30.04 in 5.0 mi Calm Calm - N/A   Partly Cloudy
4:53 AM 55.9 °F 55.0 °F 97% 30.04 in 5.0 mi Calm Calm - N/A   Clear
5:00 AM 55.9 °F 55.0 °F 97% 30.04 in 1.8 mi Calm Calm - N/A   Clear
5:13 AM 55.9 °F 55.0 °F 97% 30.05 in 0.8 mi Calm Calm - N/A   Mist
5:37 AM 55.9 °F 55.0 °F 97% 30.05 in 1.2 mi Calm Calm - N/A   Partly Cloudy
5:53 AM 55.9 °F 55.0 °F 97% 30.05 in 1.8 mi Calm Calm - N/A   Clear
6:08 AM 55.9 °F 55.0 °F 97% 30.06 in 2.5 mi Calm Calm - N/A   Clear
6:17 AM 55.9 °F 55.0 °F 97% 30.06 in 1.2 mi Calm Calm - N/A   Partly Cloudy
6:31 AM 57.0 °F 55.9 °F 96% 30.06 in 0.8 mi Calm Calm - N/A   Mist
6:48 AM 55.4 °F 55.4 °F 100% 30.06 in 1.0 mi Calm Calm - N/A   Mist
6:53 AM 55.9 °F 55.0 °F 97% 30.06 in 0.8 mi Calm Calm - N/A   Mist
7:22 AM 57.0 °F 55.9 °F 96% 30.07 in 0.2 mi Calm Calm - N/A Fog Fog
7:53 AM 59.0 °F 57.9 °F 96% 30.07 in 0.5 mi NE 3.5 mph - N/A Fog Fog
8:12 AM 59.0 °F 59.0 °F 100% 30.08 in 1.5 mi NNE 4.6 mph - N/A   Overcast
8:22 AM 59.0 °F 57.9 °F 96% 30.08 in 2.5 mi NE 3.5 mph - N/A   Mostly Cloudy
8:29 AM 60.1 °F 59.0 °F 96% 30.08 in 3.0 mi NE 4.6 mph - N/A   Scattered Clouds
8:53 AM 59.0 °F 57.9 °F 96% 30.08 in 4.0 mi NE 3.5 mph - N/A   Partly Cloudy
9:53 AM 64.0 °F 59.0 °F 84% 30.09 in 8.0 mi ENE 4.6 mph - N/A   Scattered Clouds
10:53 AM 68.0 °F 59.0 °F 73% 30.09 in 10.0 mi East 5.8 mph - N/A   Mostly Cloudy
11:53 AM 72.0 °F 59.0 °F 64% 30.07 in 10.0 mi ESE 8.1 mph - N/A   Partly Cloudy
12:53 PM 73.0 °F 55.0 °F 53% 30.05 in 10.0 mi ESE 6.9 mph - N/A   Partly Cloudy
1:53 PM 75.9 °F 52.0 °F 43% 30.03 in 10.0 mi SE 9.2 mph - N/A   Partly Cloudy
2:53 PM 71.1 °F 61.0 °F 70% 30.01 in 10.0 mi SSE 12.7 mph 20.7 mph N/A   Partly Cloudy
3:53 PM 69.1 °F 62.1 °F 78% 30.00 in 10.0 mi SSE 11.5 mph - N/A   Clear
4:53 PM 69.1 °F 61.0 °F 75% 30.00 in 10.0 mi South 10.4 mph - N/A   Clear
5:53 PM 68.0 °F 62.1 °F 81% 30.01 in 10.0 mi South 12.7 mph 20.7 mph N/A   Clear
6:53 PM 66.0 °F 62.1 °F 87% 30.03 in 10.0 mi South 6.9 mph - N/A   Clear
7:53 PM 64.9 °F 61.0 °F 87% 30.05 in 10.0 mi South 4.6 mph - N/A   Clear
8:53 PM 62.1 °F 60.1 °F 93% 30.06 in 10.0 mi Calm Calm - N/A   Clear
9:53 PM 61.0 °F 59.0 °F 93% 30.06 in 5.0 mi SSE 3.5 mph - N/A   Scattered Clouds
10:02 PM 61.0 °F 60.1 °F 97% 30.06 in 4.0 mi Calm Calm - N/A   Mostly Cloudy
10:22 PM 60.1 °F 59.0 °F 96% 30.05 in 3.0 mi SE 3.5 mph - N/A   Scattered Clouds
10:25 PM 61.0 °F 59.0 °F 93% 30.05 in 1.8 mi SE 4.6 mph - N/A   Scattered Clouds
10:33 PM 62.1 °F 60.1 °F 93% 30.05 in 0.8 mi SE 4.6 mph - N/A   Mist
10:37 PM 62.1 °F 61.0 °F 96% 30.05 in 1.2 mi SE 4.6 mph - N/A   Partly Cloudy
10:43 PM 62.1 °F 61.0 °F 96% 30.05 in 3.0 mi SE 3.5 mph - N/A   Partly Cloudy
10:50 PM 62.6 °F 60.8 °F 94% 30.04 in 2.0 mi SE 4.6 mph - N/A   Partly Cloudy
10:53 PM 62.1 °F 61.0 °F 96% 30.04 in 1.8 mi SE 4.6 mph - N/A   Partly Cloudy
10:56 PM 62.1 °F 61.0 °F 96% 30.04 in 2.0 mi SE 4.6 mph - N/A   Partly Cloudy
11:07 PM 63.0 °F 62.1 °F 97% 30.05 in 3.0 mi South 4.6 mph - N/A   Clear
11:18 PM 63.0 °F 62.1 °F 97% 30.06 in 5.0 mi South 3.5 mph - N/A   Partly Cloudy
11:32 PM 63.0 °F 62.1 °F 97% 30.06 in 5.0 mi South 3.5 mph - N/A   Mostly Cloudy
11:53 PM 64.0 °F 63.0 °F 96% 30.05 in 5.0 mi Variable 3.5 mph - N/A   Overcast